Location: Nitra
(0.0000°N, 18.0833°E)
Time: 09:59:55
(UTC+01:00)

Landsat 5 - Pass Details

Date: 25 September 2022
Orbit: 525 x 649 km, 98.2° (Epoch: 28 November)

Event Time Altitude Azimuth Distance (km) Brightness Sun altitude
Rises 19:59:08 0° 5° (N) 2,942 7.0 -20.0°
Reaches altitude 10° 20:01:23 10° 1° (N) 2,028 6.2 -20.5°
Maximum altitude 20:05:44 59° 282° (WNW) 733 4.1 -21.6°
Drops below altitude 10° 20:10:00 10° 203° (SSW) 1,986 6.4 -22.7°
Sets 20:12:11 0° 199° (SSW) 2,875 7.2 -23.2°
